This is the latest recevied weather packets stored in our database for station/object N2RDT. If no packets are shown the sender has not sent any weather packets the latest 10 day(s).
| Time | Temp. | Humidity | Pressure | Rain* | Wind** | Luminosity | Snow |
|---|---|---|---|---|---|---|---|
| 1777989656 | 21.11° C | 58% | 1017.5 hPa | 0 mm | - | 635 W/m² | - |
| 1777989352 | 20.56° C | 60% | 1017.5 hPa | 0 mm | - | 601 W/m² | - |
| 1777989049 | 20.56° C | 60% | 1017.5 hPa | 0 mm | - | 584 W/m² | - |
| 1777988744 | 20° C | 60% | 1017.5 hPa | 0 mm | - | 594 W/m² | - |
| 1777988442 | 20° C | 60% | 1017.5 hPa | 0 mm | - | 547 W/m² | - |
| 1777988139 | 19.44° C | 62% | 1017.4 hPa | 0 mm | - | 557 W/m² | - |
| 1777987834 | 19.44° C | 62% | 1017.5 hPa | 0 mm | - | 534 W/m² | - |
| 1777987531 | 18.89° C | 62% | 1017.5 hPa | 0 mm | - | 513 W/m² | - |
| 1777987229 | 18.89° C | 62% | 1017.5 hPa | 0 mm | - | 491 W/m² | - |
| 1777986925 | 18.33° C | 64% | 1017.6 hPa | 0 mm | - | 468 W/m² | - |
| 1777986624 | 18.89° C | 64% | 1017.5 hPa | 0 mm | - | 447 W/m² | - |
| 1777986321 | 18.89° C | 65% | 1017.7 hPa | 0 mm | - | 425 W/m² | - |
| 1777986020 | 18.33° C | 64% | 1017.6 hPa | 0 mm | - | 405 W/m² | - |
| 1777985716 | 18.33° C | 65% | 1017.7 hPa | 0 mm | - | 378 W/m² | - |
| 1777985413 | 17.78° C | 66% | 1017.6 hPa | 0 mm | - | 366 W/m² | - |
| 1777985110 | 17.78° C | 66% | 1017.7 hPa | 0 mm | - | 349 W/m² | - |
| 1777984806 | 17.22° C | 66% | 1017.7 hPa | 0 mm | - | 332 W/m² | - |
| 1777984502 | 17.22° C | 66% | 1017.9 hPa | 0 mm | - | 316 W/m² | - |
| 1777984199 | 17.22° C | 67% | 1017.7 hPa | 0 mm | - | 291 W/m² | - |
| 1777983896 | 16.67° C | 67% | 1017.7 hPa | 0 mm | - | 277 W/m² | - |
| 1777983593 | 16.67° C | 67% | 1017.7 hPa | 0 mm | - | 244 W/m² | - |
| 1777983289 | 16.67° C | 69% | 1017.8 hPa | 0 mm | - | 239 W/m² | - |
| 1777982986 | 16.11° C | 69% | 1017.8 hPa | 0 mm | - | 193 W/m² | - |
| 1777982682 | 16.11° C | 69% | 1017.6 hPa | 0 mm | - | 162 W/m² | - |
| 1777982381 | 16.11° C | 70% | 1017.6 hPa | 0 mm | - | 188 W/m² | - |
* Rain latest hour (hover to see other rain measurements)
** Current wind speed in m/s (hover to see current wind gust speed)